Location: Bonny Doon Airfield
(37.0704°N, 122.1252°W)
Time: 12:41:37
(UTC-08:00)

Envisat - Pass Details

Date: 12 October 2017
Orbit: 764 x 766 km, 98.2° (Epoch: 16 December)

Event Time Altitude Azimuth Distance (km) Brightness Sun altitude
Exits shadow 21:54:27 19° 307° (NW) 1,761 5.4 -39.8°
Drops below altitude 10° 21:56:16 10° 323° (NW) 2,308 6.0 -40.2°
Sets 21:58:54 0° 335° (NNW) 3,239 6.8 -40.6°
